Location: Westminster
(33.3626°N, 96.4619°W)
Time: 11:04:15
(UTC+00:00)

YAOGAN 6 - Pass Details

Date: 03 December 2021
Orbit: 461 x 501 km, 97.1° (Epoch: 24 January)

Event Time Altitude Azimuth Distance (km) Brightness Sun altitude
Exits shadow 12:06:14 15° 243° (WSW) 1,411 4.5 -13.9°
Drops below altitude 10° 12:07:05 10° 233° (SW) 1,680 5.0 -13.7°
Sets 12:09:25 0° 219° (SW) 2,550 6.0 -13.2°
